Content
SEND FEEDBACK

Daily
Averages
Monthly
Summary
United States of America

CHICAGO, ILLINOIS


Home > North America > United States > Illinois
Elevation: 674 feet     Latitude: 41 59N     Longitude: 087 54W

WEATHER
 
SELECT A DAY
Number of Records: 197,880;   Date Range: 7/8/95 - 10/22/14
 
SHARE

PRINT THIS DATA

[ ← Previous Day ]
WEATHER ALMANAC - JUNE 7, 2014
[ Next Day → ]
[ °C ]   °F
Weather ElementAverageHighLow
Temperature71.3 °F82.9 °F (12:52 pm)55.9 °F (4:52 am)
Dewpoint51.9 °F62.1 °F (11:52 pm)44.1 °F (1:52 am)
Humidity52.8 %87 % (11:52 pm)34 % (1:52 pm)
Barometer29.92 in30.01 in (4:52 am)29.84 in (7:52 pm)
Wind Speed5.6 mph13.8 mph (11:52 pm)
Weather ElementAverage
Visibility9.9 mi
Wind DirectionESE (111 °)

Weather ElementTotal
Precipitation0.04 in
Cooling Degree Days4.4 (Base 65)
Growing Degree Days19.4 (Base 50)
Averaged from 20 records on June 7, 2014
WEATHER CONDITIONS BREAKOUT
WIND DIRECTION BREAKOUT
WEATHER BY HOUR - JUNE 7, 2014
[ °C ]   °F
Local TimeTemperatureDewpointHumidityBarometerVisibilityWind DirectionWind SpeedGust SpeedPrecipitationEventsConditions
1:52 AM59.0 °F44.1 °F58 %29.98 in10.0 miCalmClear
2:52 AM57.9 °F46.0 °F65 %30.00 in10.0 miCalmClear
4:52 AM55.9 °F48.0 °F75 %30.01 in10.0 miCalmClear
5:52 AM55.9 °F48.0 °F75 %30.01 in10.0 miNE (50°)3.5 mphClear
7:52 AM69.1 °F48.9 °F49 %30.00 in10.0 miSSE (160°)4.6 mphClear
8:52 AM75.9 °F53.1 °F45 %29.99 in10.0 miSSE (160°)5.8 mphClear
10:52 AM80.1 °F52.0 °F38 %29.98 in10.0 miVariable3.5 mphClear
11:52 AM81.0 °F51.1 °F35 %29.95 in10.0 miSouth (170°)5.8 mphClear
12:52 PM82.9 °F53.1 °F36 %29.92 in10.0 miNE (50°)8.1 mphScattered Clouds
1:52 PM82.0 °F51.1 °F34 %29.90 in10.0 miESE (120°)11.5 mphScattered Clouds
2:52 PM81.0 °F50.0 °F34 %29.88 in10.0 miEast (90°)11.5 mphPartly Cloudy
3:52 PM79.0 °F52.0 °F39 %29.89 in10.0 miESE (110°)5.8 mphClear
4:52 PM77.0 °F53.1 °F43 %29.88 in10.0 miEast (80°)8.1 mphClear
5:52 PM73.9 °F53.1 °F48 %29.87 in10.0 miENE (70°)4.6 mphClear
6:52 PM73.0 °F53.1 °F49 %29.85 in10.0 miENE (70°)4.6 mphClear
7:52 PM71.1 °F53.1 °F53 %29.84 in10.0 miENE (70°)3.5 mphPartly Cloudy
8:52 PM70.0 °F52.0 °F53 %29.84 in10.0 miCalmMostly Cloudy
9:52 PM68.0 °F54.0 °F61 %29.85 in10.0 miNNW (340°)5.8 mphOvercast
10:52 PM66.9 °F60.1 °F79 %29.87 in10.0 miNNW (330°)11.5 mph0.00 inRainLight Rain
11:52 PM66.0 °F62.1 °F87 %29.89 in7.0 miNorth (350°)13.8 mph0.04 inRainLight Rain
Hourly data recorded from KPWK, located miles away from Chicago, Illinois







STORIES FROM OUR PARTNERS